Weather in Orlovo

Russia / Altai Krai     53°19′07″N   79°14′17″E
temp.,
°C
wind,
m/s
gust,
m/s
humid.,
%
clouds,
%
prec.,
mm/h
press.,
hPa
HPBL,
m
27 september, mon
mon2701:000n227836 0.0 102511
04:00+2n247592 0.0 1025174
07:000ne34877 0.0 102570
10:00+4ne46685 0.0 1025442
13:00+7ene676085 0.0 10231162
16:00+9e895261 0.0 10221434
19:00+7ene7105879 0.0 1022961
22:00+4ene5117191 0.0 1023492
28 september, tue
tue2801:00+5e6106673 0.0 1022899
04:00+3e41074100 0.0 1021455
07:00+2ene41083100 0.0 1021336
10:00+4ene61167100 0.0 1021618
13:00+7e6851100 0.0 10201084
16:00+9e784410 0.0 10181195
19:00+8e5104790 0.0 1016418
22:00+6e61355100 0.0 1014456
29 september, wed
wed2901:00+5e51171100 1.1 1012475
04:00+4ene71291100 4.8 1009381
07:00+4ene4993100 8.6 1008429
10:00+4ne4691100 0.3 1008425
13:00+5ne3390100 0.3 1009360
16:00+4n3389100 0.1 1011404
19:00+3nnw4596100 0.2 1013523
22:00+3nnw3697100 0.3 1015586
30 september, thu
thu3001:00+4nw248999 0.4 1015333
04:00+2nw34945 0.1 101766
07:00+1nw339316 0.1 101861
10:00+4nw237668 0.0 1019229
13:00+7wnw3359100 0.0 10191124
16:00+8wnw3451100 0.1 10191500
19:00+7nnw3458100 0.1 1019159
22:00+6wnw2561100 0.0 1018160
1 october, fri
fri101:00+5nw367898 0.1 1017274
04:00+3nw369466 0.1 1018264
07:00+2wnw368827 0.1 1018354
10:00+3w577420 0.0 1019495
13:00+6w6754100 0.1 10181616
16:00+6w6857100 0.0 10171267
19:00+5wsw5862100 0.0 1017913
22:00+4wsw51064100 0.0 1017574